GFSFLT2_sfc_30mbdewp_105.txt.gz
Dewpoint
69 70 70 70 70 70 69 69 69 69 70 70 70 71 71 70 70 70 70 70 70 70 68 68 68 68 68 67 67 67 67 66
68 69 69 70 70 69 69 69 69 69 69 69 70 70 70 70 70 70 70 70 69 69 68 67 68 68 67 66 66 66 66 66
67 68 68 69 70 69 69 69 69 69 69 69 69 68 69 69 69 69 69 68 69 68 67 67 67 67 66 66 66 65 66 66
66 66 67 67 68 69 69 69 69 69 68 68 68 68 68 68 68 68 68 67 68 67 67 67 67 66 66 66 66 66 66 66
65 65 65 65 66 68 68 68 68 68 69 69 68 68 68 68 67 68 68 67 67 67 67 66 66 66 66 65 65 66 65 65
64 65 64 65 66 66 66 66 66 67 68 69 69 68 68 67 66 68 68 67 66 66 66 66 66 66 66 66 65 65 66 66
63 64 64 64 65 65 65 65 66 67 67 68 69 67 67 67 67 68 67 67 66 65 66 65 65 65 65 65 65 65 64 65
64 64 64 65 65 64 64 64 65 66 67 66 67 67 66 66 66 67 67 66 65 65 65 64 64 64 64 64 64 64 64 63
53 60 62 64 64 65 65 64 65 64 64 65 65 65 66 66 65 66 65 66 65 64 64 64 64 64 63 64 64 63 62 62
31 54 64 65 65 65 65 64 64 63 64 64 65 65 66 65 65 64 65 64 64 64 63 63 63 63 62 63 63 63 62 62
27 35 55 64 65 65 65 64 64 64 63 64 64 65 65 65 64 64 64 63 63 63 63 62 62 62 61 62 62 61 61 61
34 31 38 60 64 65 65 64 64 63 63 64 64 64 64 65 64 65 64 63 63 62 62 62 61 61 60 60 61 61 61 61
50 49 39 44 60 63 63 62 62 63 63 64 64 64 64 64 65 64 63 63 62 62 61 60 60 61 60 59 60 61 61 61
48 49 50 47 53 60 61 61 62 63 63 63 64 64 64 64 64 63 62 62 62 62 61 60 60 60 57 57 54 56 59 60
45 47 49 51 53 59 62 62 63 63 63 63 63 64 64 64 63 63 62 62 61 62 61 60 58 59 59 56 52 52 54 58
42 44 47 49 53 57 60 59 59 60 62 62 63 63 63 64 63 63 62 62 62 62 61 61 59 58 59 58 55 55 53 52
41 42 45 48 50 54 60 60 60 60 62 63 63 63 63 63 63 63 63 63 62 61 61 60 60 58 58 58 56 54 54 53
38 40 42 45 48 52 58 60 60 60 61 62 62 62 62 63 63 63 63 62 62 62 61 60 60 59 59 58 56 54 53 52
36 38 40 43 46 51 55 61 60 60 60 61 61 61 62 61 63 62 62 62 62 61 60 60 60 59 58 58 58 57 55 53
35 37 38 42 45 49 57 60 61 60 61 61 60 60 61 61 62 62 62 61 61 61 61 60 60 59 58 58 58 57 57 55

GFSFLT2_sfc_30mbdewp_111.txt.gz
Dewpoint
67 69 69 70 69 69 69 69 70 71 71 71 72 71 71 70 71 71 71 71 71 70 70 68 68 68 68 68 68 68 64 59
68 69 69 68 68 69 68 68 68 69 70 71 71 71 70 70 70 70 70 70 70 70 70 68 68 68 68 68 67 67 65 63
68 69 69 69 68 68 68 68 68 68 69 70 70 68 69 69 68 68 69 70 70 69 69 68 67 68 68 67 67 64 61 58
68 69 69 70 67 68 67 67 66 65 65 66 67 65 65 65 66 68 69 69 69 69 68 67 67 64 65 67 65 61 60 57
66 68 69 69 68 67 67 66 66 66 65 65 65 64 64 64 64 66 67 68 67 67 67 66 64 62 62 63 62 61 60 61
65 65 67 68 67 66 65 64 67 64 65 67 65 65 64 64 61 64 66 65 65 64 63 64 64 62 63 62 62 63 62 63
61 64 65 66 66 64 63 63 65 66 66 65 65 62 63 61 61 60 64 65 64 63 64 64 64 63 63 62 63 63 63 63
37 57 63 64 65 65 62 62 61 63 65 64 66 63 62 62 61 60 58 62 65 63 63 63 64 63 63 63 63 63 63 63
30 38 53 61 63 63 63 59 61 61 62 64 65 65 65 66 64 60 59 59 65 66 65 63 63 63 63 63 64 63 63 62
40 38 37 52 60 60 62 61 59 59 59 62 64 63 64 65 66 64 63 61 61 63 63 62 63 62 62 62 63 63 63 62
46 49 48 41 44 54 60 61 61 60 60 60 63 64 63 64 66 65 66 65 61 63 63 62 62 61 61 62 62 62 62 62
48 48 50 52 50 46 52 55 58 61 61 61 63 62 64 64 63 65 66 66 65 62 63 64 62 60 60 60 62 62 62 62
48 48 49 50 49 46 40 51 54 57 60 61 63 63 63 64 63 64 65 64 64 65 64 64 63 62 62 61 61 62 62 62
45 45 47 48 48 49 49 47 49 52 57 58 62 64 64 64 64 64 65 64 64 64 64 63 63 63 60 59 56 58 61 60
42 43 44 45 47 48 50 50 49 52 54 55 58 63 64 65 64 65 64 64 63 64 63 62 61 63 61 57 55 53 57 59
42 43 43 43 45 46 48 49 50 45 51 53 56 61 63 65 65 65 65 64 63 63 63 63 61 59 61 60 57 54 53 50
41 41 42 42 44 46 46 47 49 51 51 55 56 58 63 63 64 64 65 64 64 63 63 63 62 60 60 59 59 57 56 53
39 40 40 41 42 43 44 45 47 49 52 53 57 57 61 63 63 64 64 64 63 64 63 63 62 61 60 59 58 57 56 55
37 38 38 39 40 40 41 43 45 47 49 53 55 57 60 62 62 64 64 64 64 64 63 62 62 61 61 58 58 58 56 55
36 36 36 37 38 38 39 40 42 45 48 51 54 58 59 62 63 63 64 64 64 64 63 62 62 62 61 60 58 58 58 56

GFSFLT2_sfc_30mbdewp_114.txt.gz
Dewpoint
71 69 69 70 70 70 70 71 71 71 71 71 71 71 71 71 70 71 71 71 71 71 71 70 68 68 68 68 68 68 67 66
72 70 69 69 69 69 69 70 70 71 71 71 71 71 71 70 70 70 70 70 70 70 70 69 68 68 67 68 67 67 67 66
69 70 70 69 69 68 68 69 69 70 71 71 71 71 70 70 70 69 70 70 70 70 70 69 68 67 67 67 67 67 65 63
69 70 70 70 68 69 68 68 68 69 69 70 70 70 69 68 68 68 69 69 69 69 69 68 67 66 67 67 67 66 64 62
70 70 69 69 69 69 67 67 67 67 67 68 68 68 68 67 67 67 69 68 68 68 68 68 66 65 64 66 66 64 63 65
68 69 69 69 68 69 68 67 67 67 67 67 67 67 66 67 65 67 68 67 67 67 66 66 66 65 64 65 64 64 63 64
65 67 69 68 68 67 67 66 67 67 67 68 68 66 66 66 64 66 67 67 67 66 65 65 65 65 64 63 63 63 63 64
56 61 65 68 68 67 66 66 67 67 67 67 68 67 65 65 64 65 66 66 66 66 64 62 64 64 63 64 63 64 64 64
39 38 46 57 64 65 65 66 65 66 67 67 67 67 65 65 65 63 62 66 65 65 64 64 64 64 63 64 64 64 64 64
48 49 49 48 48 63 65 64 65 63 65 66 66 67 65 67 65 65 65 62 66 66 65 63 63 64 63 64 64 64 63 63
48 50 52 54 54 52 52 61 64 63 62 64 65 65 66 65 66 65 66 66 64 65 65 63 63 62 63 63 63 63 63 63
48 50 52 53 53 54 51 48 60 63 63 62 63 65 64 65 65 66 65 65 65 64 63 64 63 63 62 62 62 62 62 63
47 48 49 50 50 51 51 49 49 58 61 63 64 64 65 64 65 67 66 64 64 64 64 63 63 63 61 61 61 62 62 62
44 44 45 47 47 49 50 51 53 53 54 56 61 64 64 65 65 65 66 65 63 64 65 64 63 63 61 59 57 59 62 62
42 43 44 45 46 46 47 49 51 52 50 50 59 61 64 64 65 64 65 64 63 62 64 63 61 62 62 58 55 53 57 60
42 43 43 42 44 45 46 47 47 49 51 52 54 57 58 64 63 65 65 65 63 62 63 63 61 60 62 60 58 56 54 55
41 41 41 41 42 43 44 45 46 47 48 50 52 55 56 61 63 65 64 65 64 62 62 63 62 60 60 60 59 58 57 55
39 39 39 40 40 41 42 42 42 44 45 47 49 52 55 60 62 64 65 64 64 63 63 63 61 61 60 59 59 58 57 55
37 37 37 38 38 39 39 39 40 41 42 45 46 49 52 56 60 61 63 64 64 64 64 63 62 61 61 60 59 59 58 56
36 35 35 36 36 36 37 37 38 39 41 42 45 47 50 53 59 60 63 63 63 63 63 63 63 62 61 60 59 59 58 57

GFSFLT2_sfc_30mbdewp_117.txt.gz
Dewpoint
69 69 70 70 70 71 71 71 71 70 71 71 71 71 71 70 70 70 71 71 71 71 71 70 69 67 67 67 67 68 67 64
69 69 69 69 69 70 70 71 71 71 71 71 71 71 71 70 70 70 71 71 70 70 70 70 68 67 67 67 67 67 67 66
70 69 68 69 68 69 70 70 70 71 71 70 70 71 71 70 70 70 70 70 70 70 70 69 68 67 67 67 67 67 66 65
70 69 69 68 68 68 68 69 69 70 71 70 70 70 70 70 69 69 69 69 69 69 69 69 68 67 67 67 66 66 65 64
70 70 70 69 68 68 68 68 68 69 69 70 70 70 70 68 69 68 68 68 69 69 69 68 67 66 66 66 66 66 65 65
69 70 69 70 69 68 67 67 67 67 67 69 69 68 69 68 68 68 68 68 68 68 68 68 67 66 65 66 66 65 64 65
68 69 68 68 68 69 68 67 67 67 67 67 68 66 66 67 67 67 67 68 67 67 67 67 67 66 65 65 65 64 64 65
49 66 68 68 67 67 68 68 68 67 67 67 68 67 66 66 66 66 67 67 67 66 66 66 66 65 65 65 64 64 64 64
49 51 52 52 63 65 66 67 67 67 67 67 68 67 66 65 66 65 66 67 66 66 65 64 64 64 64 64 64 64 64 64
50 52 54 54 54 56 61 66 66 65 65 67 67 68 67 66 64 65 64 66 66 66 65 64 63 63 63 63 63 64 64 64
49 50 51 51 52 54 55 54 52 60 66 67 66 66 67 66 66 65 65 65 66 65 65 63 62 62 63 63 64 63 63 63
46 48 48 49 51 52 52 53 52 55 62 65 65 66 65 66 65 65 65 65 65 65 64 64 62 62 63 63 63 63 63 63
44 45 45 46 46 47 47 49 50 53 54 55 56 65 65 64 66 66 66 64 63 65 64 63 63 63 62 61 62 62 62 62
43 43 44 45 45 45 47 48 50 50 53 54 55 55 61 65 65 65 65 65 63 64 64 62 63 63 60 59 57 59 61 62
42 42 42 43 44 44 45 45 47 48 48 49 51 52 55 60 64 63 65 64 64 63 63 63 62 63 61 58 55 54 57 60
40 40 40 41 41 41 42 43 43 45 45 46 47 48 50 53 57 62 63 63 63 64 64 63 63 61 61 59 56 55 53 52
39 39 39 39 39 39 39 40 41 42 43 43 44 46 48 49 53 56 62 63 63 63 63 63 63 61 60 60 58 57 56 55
37 36 37 37 37 37 37 37 37 38 39 40 41 44 46 48 50 53 58 62 63 63 62 62 63 62 60 59 59 57 56 56
34 35 34 34 34 35 35 35 36 36 38 39 40 41 43 45 48 51 54 60 62 63 63 62 62 62 60 60 60 58 58 57
33 32 32 33 32 33 33 34 34 35 36 37 38 40 41 43 45 48 50 53 60 61 61 61 62 62 61 61 60 59 59 57